Torna al catalogo

FENGYUN 1C DEB

AttivoPO
NORAD 29917·DEBRIS·🇨🇳 China

Lanciato May 10, 1999 da Taiyuan Satellite Launch Center

Loading…

Prossimi Passaggi (prossime 24 ore)

TLE

AggiornatoSource: Space-Track

Epoca: Sep 14, 2026, 19:32 UTC

1 29917U 99025HP  26257.81436411  .00000735  00000-0  72415-3 0  9990
2 29917  98.8520 103.3849 0223539 114.4989 259.1269 13.71026112979137

Traccia FENGYUN 1C DEB in tempo reale con AllMySat

Download on the App Store